Harrisburg, PA

9:00 AM EDT on August 23, 2017 (GMT -0400)
Capital City

Weather History for KCXY - August, 2013

Change the Weather History Date:

Thursday, August 29, 2013

  Actual Average Record
Temperature  
Mean Temperature 76 °F -  
Max Temperature 82 °F 79 °F 97 °F (1953)
Min Temperature 70 °F 61 °F 46 °F (1982)
Cooling Degree Days 11    
Growing Degree Days 26 (Base 50)    
Moisture  
Dew Point 68 °F    
Average Humidity 84    
Maximum Humidity 100    
Minimum Humidity 62    
Precipitation  
Precipitation 0.00 in - - ()
Sea Level Pressure  
Sea Level Pressure 29.97 in    
Wind  
Wind Speed 4 mph (ENE)    
Max Wind Speed 8 mph    
Max Gust Speed -    
Visibility 6 miles    
Events Rain    
Averages and records for this station are not official NWS values.
T = Trace of Precipitation, MM = Missing Value Source: NWS Daily Summary

Daily Weather History Graph

Daily Weather History Graph

Search for Another Location

Airport or City:

Trip Planner

Search our weather history database for the weather conditions in past years. The results will help you decide how hot, cold, wet, or windy it might be!

Date:

Astronomy

Aug. 29, 2013 Rise Set
Actual Time 6:32 AM EDT 7:43 PM EDT
Civil Twilight 6:04 AM EDT 8:11 PM EDT
Nautical Twilight 5:30 AM EDT 8:44 PM EDT
Astronomical Twilight 4:55 AM EDT 9:19 PM EDT
Moon 12:21 AM EDT (8/29) 3:10 PM EDT (8/29)
Length of Visible Light 14h 07m
Length of Day
13h 11m
Last Quarter, 38% of the Moon is Illuminated
Aug 29
Last Quarter
Sep 5
New
Sep 12
First Quarter
Sep 19
Full
Sep 26
Last Quarter

Hourly Weather History & Observations

Time (EDT) Temp. Heat Index Dew Point Humidity Pressure Visibility Wind Dir Wind Speed Gust Speed Precip Events Conditions
12:18 AM 71.6 °F - 71.6 °F 100% 29.89 in 2.0 mi ENE 5.8 mph - N/A Rain Light Rain
12:22 AM 71.6 °F - 71.6 °F 100% 29.89 in 3.0 mi East 4.6 mph - N/A Rain Light Rain
12:31 AM 71.6 °F - 71.6 °F 100% 29.89 in 6.0 mi Calm Calm - N/A   Overcast
12:56 AM 73.0 °F - 70.0 °F 90% 29.88 in 4.0 mi NE 3.5 mph - N/A   Overcast
1:38 AM 71.6 °F - 69.8 °F 94% 29.89 in 5.0 mi NE 8.1 mph - N/A   Overcast
1:56 AM 72.0 °F - 70.0 °F 93% 29.90 in 5.0 mi ENE 8.1 mph - N/A   Overcast
2:42 AM 71.6 °F - 69.8 °F 94% 29.91 in 5.0 mi ENE 5.8 mph - N/A   Scattered Clouds
2:56 AM 71.1 °F - 69.1 °F 93% 29.91 in 5.0 mi ENE 6.9 mph - N/A   Clear
3:16 AM 71.6 °F - 69.8 °F 94% 29.91 in 5.0 mi ENE 8.1 mph - N/A   Mostly Cloudy
3:33 AM 71.6 °F - 69.8 °F 94% 29.92 in 4.0 mi East 4.6 mph - N/A   Overcast
3:48 AM 71.6 °F - 68.0 °F 88% 29.92 in 5.0 mi East 4.6 mph - N/A   Overcast
3:56 AM 71.1 °F - 68.0 °F 90% 29.91 in 5.0 mi ENE 4.6 mph - N/A   Overcast
4:56 AM 71.1 °F - 68.0 °F 90% 29.92 in 5.0 mi ENE 4.6 mph - N/A   Overcast
5:56 AM 70.0 °F - 68.0 °F 93% 29.95 in 5.0 mi Calm Calm - N/A   Overcast
6:56 AM 70.0 °F - 68.0 °F 93% 29.97 in 4.0 mi ENE 3.5 mph - N/A   Overcast
7:29 AM 71.6 °F - 66.2 °F 83% 29.98 in 4.0 mi Variable 3.5 mph - N/A   Overcast
7:56 AM 71.1 °F - 66.9 °F 87% 29.99 in 4.0 mi NE 5.8 mph - N/A   Overcast
8:56 AM 72.0 °F - 66.9 °F 84% 30.00 in 5.0 mi North 4.6 mph - N/A   Haze
9:47 AM 73.4 °F - 66.2 °F 78% 30.01 in 6.0 mi North 3.5 mph - N/A   Haze
9:56 AM 73.0 °F - 68.0 °F 84% 30.01 in 6.0 mi Calm Calm - N/A   Haze
10:56 AM 73.9 °F - 68.0 °F 82% 30.02 in 6.0 mi NW 3.5 mph - N/A   Haze
11:56 AM 75.9 °F - 68.0 °F 76% 30.03 in 6.0 mi East 3.5 mph - N/A   Haze
12:56 PM 75.9 °F - 66.9 °F 74% 30.03 in 7.0 mi NNE 3.5 mph - N/A   Overcast
1:56 PM 75.9 °F - 68.0 °F 76% 30.03 in 6.0 mi Calm Calm - N/A   Haze
2:32 PM 78.8 °F - 69.8 °F 74% 30.02 in 6.0 mi Calm Calm - N/A   Haze
2:56 PM 78.1 °F - 68.0 °F 71% 30.01 in 7.0 mi Calm Calm - N/A   Scattered Clouds
3:56 PM 80.1 °F 82.7 °F 68.0 °F 67% 30.00 in 9.0 mi Calm Calm - N/A   Clear
4:56 PM 82.0 °F 84.9 °F 68.0 °F 62% 29.99 in 10.0 mi South 4.6 mph - N/A   Clear
5:56 PM 81.0 °F 83.3 °F 66.9 °F 62% 29.99 in 10.0 mi SSW 3.5 mph - N/A   Clear
6:56 PM 80.1 °F 82.7 °F 68.0 °F 67% 29.99 in 10.0 mi South 3.5 mph - N/A   Clear
7:56 PM 77.0 °F - 68.0 °F 74% 30.00 in 10.0 mi Calm Calm - N/A   Clear
8:56 PM 75.0 °F - 68.0 °F 79% 30.01 in 10.0 mi Calm Calm - N/A   Clear
9:56 PM 73.0 °F - 68.0 °F 84% 30.01 in 10.0 mi Calm Calm - N/A   Mostly Cloudy
10:56 PM 72.0 °F - 68.0 °F 87% 30.01 in 9.0 mi SSW 3.5 mph - N/A   Mostly Cloudy
11:56 PM 72.0 °F - 68.0 °F 87% 30.01 in 9.0 mi Calm Calm - N/A   Mostly Cloudy